{"data":{"norad_id":61971,"intl_designator":"2024-210N","name":"STARLINK-32610","alt_names":[],"object_type":"PAYLOAD","status":"ACTIVE","operator":null,"country":"US","launch_date":"2024-11-14","launch_site_code":"AFETR","launch_vehicle":null,"mission":null,"orbit_class":"UNKNOWN","rcs_meters":null,"size_class":null,"mass_kg":null,"dimensions":null,"purposes":["comms"],"wikipedia_slug":null,"has_3d_model":false,"image_url":null,"decayed_at":null,"tle_current":{"epoch":"2026-09-21T00:57:45.963648Z","epoch_age_seconds":138967,"freshness":"FRESH","line1":"1 61971U 24210N   26264.04011532  .00009234  00000+0  34463-3 0  9999","line2":"2 61971  43.0004 156.8122 0001181 278.3690  81.7028 15.27584281104798","mean_motion":15.27584281,"eccentricity":0.0001181,"inclination_deg":43.0004,"raan_deg":156.8122,"arg_perigee_deg":278.369,"mean_anomaly_deg":81.7028,"bstar":0.00034463,"rev_number":10479,"period_min":94.266484534479,"perigee_km":482.22597265147,"apogee_km":483.84658177955,"semimajor_km":6861.1732772155,"source":"CELESTRAK","updated_at":"2026-09-22T09:00:49.479332Z"}}}